Home > Weather > Fort Worth > Past weeks

Flag for USA Past Weather in Fort Worth, Texas, USA — Yesterday and Last 2 Weeks

Now
100 °F

Sunny.


Feels Like: 105 °F
Forecast: 82 / 101 °F
Wind: 12 mph from Southeast

Location: Meacham International Airport

Current Time: Jul 24, 2016 at 5:23:11 PM

Latest Report: Jul 24, 2016 at 4:53 PM


Visibility: 10 mi

Pressure: 29.84 "Hg

Humidity: 34%

Dew Point: 67 °F

Location of Fort WorthLocation

Past Weather in Fort Worth — Graph

°F

Fort Worth Temperature Yesterday

Maximum temperature yesterday: 101 °F (at 1:53 PM)
Minimum temperature yesterday: 82 °F (at 6:53 AM)
Average temperature yesterday: 92 °F

High & Low Weather Summary for the Past Weeks

 TemperatureHumidityPressure
High101 °F (Jul 22, 3:53 PM)85% (Jul 10, 5:53 AM)30.17 "Hg (Jul 10, 5:53 AM)
Low72 °F (Jul 9, 4:53 PM)28% (Jul 22, 4:53 PM)29.75 "Hg (Jul 11, 6:53 PM)
Average89 °F54%29.96 "Hg
* Reported Jul 9 3:53 PM — Jul 24 3:53 PM, Fort Worth, Weather by CustomWeather, © 2016

Note: Actual official high and low records may vary slightly from our data, if they occured in-between our weather recording intervals... More about our weather records

Advertising

Fort Worth Weather History for the Previous 24 Hours

Scroll right to see more
 ConditionsComfort  
Time TempWeatherWind HumidityBarometerVisibility
3:53 PM
Sun, Jul 24
100 °FPassing clouds.3 mph35%29.86 "Hg10 mi
2:53 PM99 °FPassing clouds.6 mph38%29.89 "Hg10 mi
1:53 PM99 °FSunny.7 mph35%29.90 "Hg10 mi
12:53 PM98 °FSunny.N/A38%29.92 "Hg10 mi
11:53 AM96 °FSunny.6 mph41%29.94 "Hg10 mi
10:53 AM94 °FSunny.5 mph46%29.94 "Hg10 mi
9:53 AM91 °FSunny.7 mph50%29.94 "Hg10 mi
8:53 AM88 °FSunny.10 mph57%29.93 "Hg10 mi
7:53 AM84 °FSunny.6 mph65%29.91 "Hg10 mi
6:53 AM81 °FClear.6 mph69%29.90 "Hg10 mi
5:53 AM82 °FClear.5 mph67%29.89 "Hg10 mi
4:53 AM83 °FClear.7 mph63%29.87 "Hg10 mi
3:53 AM84 °FClear.10 mph61%29.87 "Hg10 mi
2:53 AM84 °FClear.6 mph59%29.86 "Hg10 mi
1:53 AM86 °FClear.6 mph57%29.87 "Hg10 mi
12:53 AM88 °FClear.8 mph54%29.88 "Hg10 mi
11:53 PM
Sat, Jul 23
91 °FClear.12 mph49%29.88 "Hg10 mi
10:53 PM92 °FClear.12 mph47%29.87 "Hg10 mi
9:53 PM93 °FClear.9 mph46%29.86 "Hg10 mi
8:53 PM95 °FSunny.14 mph41%29.85 "Hg10 mi
7:53 PM97 °FSunny.12 mph36%29.82 "Hg10 mi
6:53 PM99 °FSunny.12 mph33%29.82 "Hg10 mi
5:53 PM100 °FSunny.7 mph32%29.83 "Hg10 mi
Weather by CustomWeather, © 2016

See weather overviewHow to use our weather pages